Volver al catálogo

STARLINK-36229

ActivoComunicacionesSSO
NORAD 68114·PAYLOAD·🇺🇸 United States

Lanzado Mar 8, 2026 desde Vandenberg Space Force Base

Loading…

Próximos Pases (próximas 24 horas)

TLE

ActualizadoSource: CelesTrak SupGP

Época: Sep 15, 2026, 03:11 UTC

1 68114C 26044P   26258.13312500  .00010071  00000+0  31273-3 0  2589
2 68114  97.2851 217.1571 0001935  92.3554 320.0307 15.33424105    18

Sigue STARLINK-36229 en tiempo real con AllMySat

Download on the App Store